Home > Weather > Broken Hill > Past weeks

Flag for Australia Past Weather in Broken Hill, New South Wales, Australia — Yesterday and Last 2 Weeks

Now
51 °F

Cool.


Feels Like: 48 °F
Forecast: 47 / 64 °F
Wind: 7 mph from North

Location: Yunta

Current Time: Aug 28, 2016 at 4:27:57 AM

Latest Report: Aug 28, 2016 at 3:00 AM


Visibility: N/A

Pressure: 30.09 "Hg

Humidity: 40%

Dew Point: 27 °F

Location of Broken HillLocation

Past Weather in Broken Hill — Graph

°F

Broken Hill Temperature Yesterday

Maximum temperature yesterday: 65 °F (at 4:30 PM)
Minimum temperature yesterday: 30 °F (at 6:00 AM)
Average temperature yesterday: 50 °F

High & Low Weather Summary for the Past Weeks

 TemperatureHumidityPressure
High77 °F (Aug 17, 1:30 PM)93% (Aug 14, 7:30 AM)30.42 "Hg (Aug 14, 7:30 AM)
Low30 °F (Aug 14, 5:30 AM)18% (Aug 17, 1:30 PM)29.75 "Hg (Aug 18, 10:30 PM)
Average52 °F54%30.11 "Hg
* Reported Aug 13 2:30 AM — Aug 28 3:00 AM, Broken Hill, Weather by CustomWeather, © 2016

Note: Actual official high and low records may vary slightly from our data, if they occured in-between our weather recording intervals... More about our weather records

Advertising

Broken Hill Weather History for the Previous 24 Hours

Scroll right to see more
 ConditionsComfort  
Time TempWeatherWind HumidityBarometerVisibility
3:00 AM
Sun, Aug 28
51 °FCool.7 mph40%30.09 "HgN/A
2:30 AM51 °FCool.6 mph38%30.09 "HgN/A
1:30 AM54 °FCool.7 mph34%30.10 "HgN/A
12:00 AM55 °FRefreshingly cool.13 mph32%30.11 "HgN/A
11:30 PM
Sat, Aug 27
56 °FRefreshingly cool.13 mph31%30.11 "HgN/A
10:30 PM56 °FRefreshingly cool.7 mph32%30.10 "HgN/A
9:00 PM56 °FRefreshingly cool.8 mph34%30.12 "HgN/A
8:30 PM58 °FRefreshingly cool.14 mph31%30.12 "HgN/A
7:30 PM59 °FRefreshingly cool.15 mph30%30.12 "HgN/A
6:00 PM61 °FRefreshingly cool.9 mph29%30.11 "HgN/A
5:30 PM62 °FRefreshingly cool.9 mph28%30.10 "HgN/A
4:30 PM65 °FMild.12 mph26%30.10 "HgN/A
3:00 PM65 °FMild.12 mph27%30.12 "HgN/A
2:30 PM64 °FMild.13 mph27%30.13 "HgN/A
1:30 PM64 °FMild.13 mph27%30.15 "HgN/A
12:00 PM62 °FRefreshingly cool.14 mph30%30.19 "HgN/A
10:30 AM59 °FRefreshingly cool.13 mph35%30.22 "HgN/A
9:00 AM53 °FCool.13 mph46%30.23 "HgN/A
8:30 AM50 °FCool.13 mph52%30.23 "HgN/A
7:30 AM44 °FQuite cool.9 mph64%30.22 "HgN/A
6:00 AM30 °FChilly.No wind80%30.21 "HgN/A
5:30 AM32 °FChilly.No wind83%30.21 "HgN/A
4:30 AM31 °FChilly.2 mph79%30.20 "HgN/A
Weather by CustomWeather, © 2016

See weather overviewHow to use our weather pages